sat.trackr.live / text

‹ back to catalog

STARLINK-11414 [DTC]

NORAD 61948 · 2024-209K

PAYLOAD ACTIVE UNKNOWN

§ Identity

Operator
Country
US
Launch date
2024-11-14
Launch site
AFWTR
Launch vehicle
Mass (kg)
RCS (m²)

Purposes: comms

External: N2YO · Heavens-Above · Gunter

§ Orbital elements

Epoch: 2026-09-21T21:02:41.122176Z

Period
91.74 min
Inclination
53.1578°
Eccentricity
0.0000984
Mean motion
15.69703968 rev/d
Perigee alt
359.1 km
Apogee alt
360.4 km
Semi-major
6,737.9 km
B*
1.3761e-3
RAAN
123.9622°
Arg perigee
96.5805°
Mean anomaly
263.5325°
Rev number
10,753

§ Raw data

STARLINK-11414 [DTC]1 61948U 24209K   26264.87686484  .00169529  00000+0  13761-2 0  99972 61948  53.1578 123.9622 0000984  96.5805 263.5325 15.69703968107534

JSON: /api/v1/satellites/61948 · /tle

For live sub-satellite position, see the globe view (requires WebGL).

§ Visibility from observer

Set your observer location to see the next 7 days of passes ≥ 10°. The values pass through the URL so the page stays shareable.

No JS? Fill the form by hand. The geolocation button needs JavaScript.